This is the latest recevied weather packets stored in our database for station/object WD7OO. If no packets are shown the sender has not sent any weather packets the latest 10 day(s).
| Time | Temp. | Humidity | Pressure | Rain* | Wind** | Luminosity | Snow |
|---|---|---|---|---|---|---|---|
| 1778102246 | 12.78° C | 43% | 1013.5 hPa | 0 mm | - | 148 W/m² | - |
| 1778101942 | 12.78° C | 39% | 1013.6 hPa | 0 mm | - | 168 W/m² | - |
| 1778101639 | 12.78° C | 40% | 1013.6 hPa | 0 mm | - | 184 W/m² | - |
| 1778101336 | 14.44° C | 39% | 1013.5 hPa | 0 mm | - | 205 W/m² | - |
| 1778101034 | 13.89° C | 43% | 1013.4 hPa | 0 mm | - | 585 W/m² | - |
| 1778100728 | 12.78° C | 40% | 1013.7 hPa | 0 mm | - | 239 W/m² | - |
| 1778100426 | 13.33° C | 40% | 1013.7 hPa | 0 mm | - | 189 W/m² | - |
| 1778100123 | 13.33° C | 40% | 1013.6 hPa | 0 mm | - | 294 W/m² | - |
| 1778099821 | 12.78° C | 41% | 1013.8 hPa | 0 mm | - | 248 W/m² | - |
| 1778099518 | 13.33° C | 38% | 1014.1 hPa | 0 mm | - | 229 W/m² | - |
| 1778099216 | 13.33° C | 45% | 1014 hPa | 0 mm | - | 476 W/m² | - |
| 1778098911 | 13.33° C | 39% | 1013.9 hPa | 0 mm | - | 534 W/m² | - |
| 1778098609 | 13.33° C | 41% | 1014 hPa | 0 mm | - | 342 W/m² | - |
| 1778098305 | 13.33° C | 36% | 1013.9 hPa | 0 mm | - | 531 W/m² | - |
| 1778098002 | 12.78° C | 43% | 1014.1 hPa | 0 mm | - | 335 W/m² | - |
| 1778097699 | 13.33° C | 39% | 1014.2 hPa | 0 mm | - | 272 W/m² | - |
| 1778097395 | 12.78° C | 39% | 1014 hPa | 0 mm | - | 343 W/m² | - |
| 1778097091 | 13.33° C | 40% | 1014.2 hPa | 0 mm | - | 511 W/m² | - |
| 1778096789 | 13.33° C | 38% | 1014.2 hPa | 0 mm | - | 496 W/m² | - |
| 1778096485 | 13.89° C | 38% | 1014.2 hPa | 0 mm | - | 511 W/m² | - |
| 1778096183 | 12.78° C | 40% | 1014.3 hPa | 0 mm | - | 502 W/m² | - |
| 1778095880 | 13.33° C | 35% | 1014.3 hPa | 0 mm | - | 413 W/m² | - |
| 1778095577 | 13.33° C | 36% | 1014.2 hPa | 0 mm | - | 473 W/m² | - |
| 1778095273 | 12.78° C | 39% | 1014.1 hPa | 0 mm | - | 545 W/m² | - |
| 1778094970 | 13.33° C | 34% | 1014.2 hPa | 0 mm | - | 442 W/m² | - |
* Rain latest hour (hover to see other rain measurements)
** Current wind speed in m/s (hover to see current wind gust speed)